Regional Weather Roundup
Issued by NWS

Home | Current Version | Previous Version | Graphics & Text | Print | Product List | Glossary On
Versions: 1 2 3 4 5 6 7 8 9 10 11 12 13 14 15 16 17 18 19 20 21 22 23 24 25 26 27 28 29 30 31 32 33 34 35 36 37 38 39 40 41 42 43 44 45 46 47 48 49 50
000
ASUS43 KTOP 191859
RWRKS

WEATHER ROUNDUP FOR KANSAS
NATIONAL WEATHER SERVICE GOODLAND KS
100 PM CST FRI DEC 19 2014

NOTE:  "FAIR" INDICATES FEW OR NO CLOUDS BELOW 12,000 FEET WITH NO
SIGNIFICANT WEATHER AND/OR OBSTRUCTIONS TO VISIBILITY.

KSZ001>006-013>018-027>032-041>047-192000-
NORTHWEST KANSAS

CITY           SKY/WX    TMP DP  RH WIND       PRES   REMARKS
GOODLAND       SUNNY     46  23  40 W10       30.09F
HAYS           MOSUNNY   43  30  61 S12       30.14F
HILL CITY      SUNNY     43  27  53 S5        30.11F
RUSSELL        CLOUDY    37  35  92 S12       30.14F WCI  29
$$

KSZ061>065-074>080-084>089-192000-
SOUTHWEST KANSAS

CITY           SKY/WX    TMP DP  RH WIND       PRES   REMARKS
DODGE CITY     CLOUDY    40  33  76 SW9       30.15F
ELKHART          N/A    N/A N/A N/A MISG        N/A
GARDEN CITY    PTSUNNY   42  34  73 SW9       30.12F
GREAT BEND     CLOUDY    36  30  80 S9        30.18F
LIBERAL        CLOUDY    39  34  81 S6        30.16F
$$

KSZ066>073-081>083-090>101-192000-
SOUTHEAST KANSAS

CITY           SKY/WX    TMP DP  RH WIND       PRES   REMARKS
CHANUTE        CLOUDY    35  34  96 N6        30.24F FOG
COFFEYVILLE    CLOUDY    38  35  89 N6        30.23F
HUTCHINSON     CLOUDY    36  31  82 SW6       30.20F HAZE
MEDICINE LODGE   N/A     36  33  89 SW5       30.20F
NEWTON         CLOUDY    32  25  74 S3        30.22F
PARSONS        CLOUDY    38  35  89 N3        30.24F
WICHITA INTL   CLOUDY    35  31  85 S3        30.22F
WICHITA JABRA  CLOUDY    33  30  88 CALM      30.21F
WINFIELD       CLOUDY    37  32  82 E3        30.23F
$$

KSZ007>012-019>026-033>040-048>060-102>105-192000-
NORTHEAST KANSAS

CITY           SKY/WX    TMP DP  RH WIND       PRES   REMARKS
CONCORDIA      CLOUDY    32  29  88 S15       30.18F WCI  22
EMPORIA        CLOUDY    32  28  85 CALM      30.23F
LAWRENCE       PTSUNNY   34  29  82 N3        30.25F
MANHATTAN      CLOUDY    32  30  92 S7        30.23F FOG
OLATHE IND     CLOUDY    33  29  85 CALM      30.24F
OLATHE EXE     CLOUDY    33  29  85 CALM      30.23F
SALINA         CLOUDY    33  29  85 S9        30.21F
TOPEKA BILLARD CLOUDY    32  29  88 CALM      30.25F
TOPEKA FORBES  CLOUDY    32  28  85 SW5       30.23F
$$



USA.gov is the U.S. government's official web portal to all federal, state and local government web resources and services.